Weather History for Elmira, NY

Change the Weather History Date:

Tuesday, July 2, 2013

  Actual Average Record
Temperature  
Mean Temperature 75 °F -  
Max Temperature 84 °F 80 °F 100 °F (1931)
Min Temperature 66 °F 54 °F 27 °F (2001)
Cooling Degree Days 10    
Growing Degree Days 25 (Base 50)    
Moisture  
Dew Point 68 °F    
Average Humidity 83    
Maximum Humidity 94    
Minimum Humidity 58    
Precipitation  
Precipitation 0.64 in - - ()
Sea Level Pressure  
Sea Level Pressure 30.05 in    
Wind  
Wind Speed 3 mph (SSE)    
Max Wind Speed 10 mph    
Max Gust Speed -    
Visibility 7 miles    
Events Rain , Thunderstorm    
Averages and records for this station are not official NWS values.
T = Trace of Precipitation, MM = Missing Value Source: NWS Daily Summary

Daily Weather History Graph

Daily Weather History Graph

Search for Another Location

Airport:

Trip Planner

Search our weather history database for the weather conditions in past years. The results will help you decide how hot, cold, wet, or windy it might be!

Date:

Astronomy

Jul. 02, 2013 Rise Set
Actual Time 5:35 AM EDT 8:47 PM EDT
Civil Twilight 5:01 AM EDT 9:21 PM EDT
Nautical Twilight 4:17 AM EDT 10:05 PM EDT
Astronomical Twilight 3:24 AM EDT 10:58 PM EDT
Moon 1:40 AM EDT (7/2) 3:56 PM EDT (7/2)
Length of Visible Light 16h 20m
Length of Day
15h 11m
Waning Crescent, 26% of the Moon is Illuminated
Jul 2
Waning Crescent
Jul 8
New
Jul 15
First Quarter
Jul 22
Full
Jul 29
Last Quarter

Hourly Weather History & Observations

Time (EDT) Temp. Heat Index Dew Point Humidity Pressure Visibility Wind Dir Wind Speed Gust Speed Precip Events Conditions
12:04 AM 68.0 °F - 64.4 °F 88% 30.02 in 9.0 mi Calm Calm - 0.00 in   Overcast
12:07 AM 68.0 °F - 64.4 °F 88% 30.02 in 9.0 mi Calm Calm - 0.01 in   Overcast
12:53 AM 68.0 °F - 64.9 °F 90% 30.01 in 10.0 mi East 4.6 mph - 0.04 in   Overcast
1:53 AM 66.9 °F - 64.9 °F 93% 30.02 in 6.0 mi ESE 3.5 mph - 0.04 in   Overcast
2:53 AM 66.9 °F - 64.0 °F 90% 30.01 in 5.0 mi East 3.5 mph - 0.04 in   Overcast
3:38 AM 66.2 °F - 64.4 °F 94% 30.02 in 3.0 mi East 3.5 mph - 0.02 in   Overcast
3:53 AM 66.0 °F - 64.0 °F 93% 30.01 in 4.0 mi East 3.5 mph - 0.03 in   Overcast
4:18 AM 66.2 °F - 64.4 °F 94% 30.02 in 2.0 mi East 4.6 mph - 0.02 in   Overcast
4:53 AM 66.0 °F - 64.0 °F 93% 30.02 in 2.0 mi East 3.5 mph - 0.04 in   Overcast
5:05 AM 66.2 °F - 64.4 °F 94% 30.03 in 3.0 mi East 3.5 mph - N/A   Overcast
5:53 AM 66.0 °F - 64.0 °F 93% 30.02 in 5.0 mi East 3.5 mph - 0.03 in   Overcast
6:00 AM 66.2 °F - 62.6 °F 88% 30.03 in 5.0 mi East 3.5 mph - N/A   Overcast
6:53 AM 66.9 °F - 64.0 °F 90% 30.03 in 5.0 mi Calm Calm - 0.03 in   Overcast
7:53 AM 69.1 °F - 66.0 °F 90% 30.03 in 8.0 mi Calm Calm - 0.03 in   Overcast
8:53 AM 73.0 °F - 68.0 °F 84% 30.04 in 10.0 mi Calm Calm - 0.04 in   Overcast
9:08 AM 73.4 °F - 68.0 °F 83% 30.05 in 10.0 mi Calm Calm - N/A   Overcast
10:12 AM 75.2 °F - 69.8 °F 83% 30.06 in 10.0 mi Calm Calm - 0.01 in   Overcast
10:53 AM 78.1 °F - 69.1 °F 74% 30.04 in 10.0 mi Calm Calm - 0.03 in   Overcast
11:00 AM 78.8 °F - 69.8 °F 74% 30.06 in 10.0 mi Calm Calm - 0.01 in   Overcast
11:13 AM 78.8 °F - 68.0 °F 69% 30.06 in 10.0 mi South 6.9 mph - 0.01 in   Overcast
11:53 AM 81.0 °F 84.4 °F 70.0 °F 69% 30.04 in 10.0 mi Variable 4.6 mph - 0.03 in   Partly Cloudy
12:53 PM 81.0 °F 84.1 °F 69.1 °F 67% 30.04 in 10.0 mi South 10.4 mph - 0.04 in   Scattered Clouds
1:53 PM 82.0 °F 84.9 °F 68.0 °F 62% 30.02 in 10.0 mi South 10.4 mph - 0.03 in   Mostly Cloudy
2:24 PM 84.2 °F 87.3 °F 68.0 °F 58% 30.04 in 10.0 mi SSW 10.4 mph - 0.02 in Thunderstorm Mostly Cloudy
2:53 PM 82.9 °F 85.4 °F 66.9 °F 58% 30.02 in 10.0 mi SW 6.9 mph - 0.03 in Thunderstorm Scattered Clouds
3:01 PM 78.8 °F - 69.8 °F 74% 30.05 in 2.5 mi West 9.2 mph - 0.00 in Rain Heavy Rain
3:07 PM 75.2 °F - 69.8 °F 83% 30.05 in 4.0 mi NW 6.9 mph - 0.01 in Rain , Thunderstorm Light Thunderstorms and Rain
3:27 PM 75.2 °F - 71.6 °F 89% 30.06 in 4.0 mi NW 6.9 mph - 0.02 in Rain Rain
3:40 PM 75.2 °F - 69.8 °F 83% 30.05 in 10.0 mi Calm Calm - 0.02 in Thunderstorm Mostly Cloudy
3:53 PM 77.0 °F - 70.0 °F 79% 30.03 in 10.0 mi Calm Calm - 0.03 in   Mostly Cloudy
4:53 PM 80.1 °F 83.2 °F 70.0 °F 71% 30.04 in 10.0 mi Calm Calm - 0.02 in   Partly Cloudy
5:53 PM 81.0 °F 84.9 °F 71.1 °F 72% 30.03 in 10.0 mi Calm Calm - 0.03 in   Clear
6:11 PM 80.6 °F 83.9 °F 69.8 °F 70% 30.06 in 10.0 mi SW 5.8 mph - N/A Thunderstorm Thunderstorm
6:31 PM 77.0 °F - 68.0 °F 74% 30.07 in 9.0 mi SW 9.2 mph - 0.01 in Rain Light Rain
6:53 PM 75.9 °F - 69.1 °F 79% 30.05 in 10.0 mi WSW 6.9 mph - 0.02 in Rain Light Rain
7:53 PM 73.9 °F - 69.1 °F 85% 30.07 in 10.0 mi Calm Calm - N/A   Mostly Cloudy
8:53 PM 73.0 °F - 70.0 °F 90% 30.09 in 10.0 mi Calm Calm - 0.01 in   Clear
9:53 PM 71.1 °F - 69.1 °F 93% 30.10 in 8.0 mi WNW 4.6 mph - 0.02 in   Clear
10:53 PM 71.1 °F - 69.1 °F 93% 30.09 in 7.0 mi Calm Calm - 0.01 in   Clear
11:29 PM 69.8 °F - 68.0 °F 94% 30.11 in 1.5 mi Calm Calm - 0.01 in   Partly Cloudy
11:49 PM 69.8 °F - 68.0 °F 94% 30.12 in 2.5 mi Calm Calm - 0.02 in   Mist
11:53 PM 70.0 °F - 68.0 °F 93% 30.10 in 3.0 mi Calm Calm - 0.02 in   Mist